(23496) = 1991 VN3

Discovered at Palomar on 1991-11-03 by E. F. Helin.

Orbit

Orbit type: Main Belt

Note: WebGL enabled browser required.

epoch2023-09-13.0
epoch JD2460200.5
perihelion date2021-01-09.76020
perihelion JD2459224.26020
argument of perihelion (°)0.29909
ascending node (°)57.20041
inclination (°)6.79958
eccentricity0.3234921
perihelion distance (AU)1.7499916
Tisserand w.r.t. Jupiter3.3
ΔV w.r.t. Earth (km/sec)8.6
semimajor axis (AU)2.5868014
mean anomaly (°)231.26810
mean daily motion (°/day)0.23689680
aphelion distance (AU)3.424
period (years)4.16
P-vector [x]0.53733786
P-vector [y]0.77352811
P-vector [z]0.33603911
Q-vector [x]-0.83747456
Q-vector [y]0.44237903
Q-vector [z]0.32083820
absolute magnitude15.14
phase slope0.15
uncertainty0
referenceMPO 776318
observations used1366
oppositions17
arc length (days)11167
first opposition used1991
last opposition used2022
residual rms (arc-secs)0.61
perturbers coarse indicatorM-v
perturbers precise indicator003Ek
first observation date used1991-11-03.0
last observation date used2022-05-31.0
computer nameMPCLINUX
JD of orbit computation2456937.306804
perihelion JD uncertainty (days)3.7666E-05
argument of perihelion uncertainty (°)2.9250E-05
ascending node uncertainty (°)2.8826E-05
inclination uncertainty (°)4.4393E-06
eccentricity uncertainty 6.3821E-08
perihelion distance uncertainty (AU)1.6242E-07
Minimum Orbit Intersection Distances (in AU)
for orbit epoch: 2460200.5, reference: E2023-VB5
Mercury1.43821
Venus1.02821
Earth0.76105
Mars0.23956
Jupiter1.94488
Saturn6.5295
Uranus15.3847
Neptune27.2106

Observations

1393 total observations over interval: 1991 11 03.51024 – 2022 05 31.235390
These data are available for download (format description).

Date (UT) J2000 RA J2000 Dec Magn Location Ref
1991 11 03.51024 04 33 20.63 +21 01 30.9 16.5   675 – Palomar Mountain MPC 19420
1991 11 03.53351 04 33 20.09 +21 01 39.6   675 – Palomar Mountain MPC 19420
1991 11 05.51285 04 32 30.78 +21 14 08.1   675 – Palomar Mountain MPC 19420
1991 11 05.53420 04 32 30.14 +21 14 14.7   675 – Palomar Mountain MPC 19420
1991 11 30.63542 04 12 37.29 +23 41 59.2 17.0   402 – Dynic Astronomical Observatory MPC 19587
1991 11 30.64931 04 12 36.46 +23 42 04.2   402 – Dynic Astronomical Observatory MPC 19587
1991 12 12.56736 04 02 23.65 +24 37 59.4 16.5   385 – Nihondaira Observatory MPC 19580
1991 12 12.57500 04 02 23.17 +24 38 02.1   385 – Nihondaira Observatory MPC 19580
1991 12 13.54306 04 01 42.19 +24 42 08.0 16.5   385 – Nihondaira Observatory MPC 19580
1991 12 13.55208 04 01 41.83 +24 42 11.0   385 – Nihondaira Observatory MPC 19580
1991 12 28.56528 03 55 21.24 +25 40 40.2 17   385 – Nihondaira Observatory MPC 19580
1991 12 28.57431 03 55 21.15 +25 40 44.0   385 – Nihondaira Observatory MPC 19580
1991 12 29.45712 03 55 16.01 +25 43 57.3 17   385 – Nihondaira Observatory MPC 19580
1997 05 08.17590 12 31 55.57 +02 54 24.2 19.7 R 688 – Lowell Observatory, Anderson Mesa Station MPS 16348
1997 05 08.17862 12 31 55.44 +02 54 24.4 19.5 R 688 – Lowell Observatory, Anderson Mesa Station MPS 16348
1997 05 08.19502 12 31 54.97 +02 54 24.9 19.5 R 688 – Lowell Observatory, Anderson Mesa Station MPS 16348
1997 05 08.19751 12 31 54.92 +02 54 25.4 19.6 R 688 – Lowell Observatory, Anderson Mesa Station MPS 16348
1999 09 09.28914 22 41 22.33 -21 35 35.7 17.5 R 699 – Lowell Observatory-LONEOS MPS 6611
1999 09 09.30191 22 41 21.60 -21 35 38.7   699 – Lowell Observatory-LONEOS MPS 6611
1999 09 09.31471 22 41 20.89 -21 35 42.7   699 – Lowell Observatory-LONEOS MPS 6611
1999 09 11.26604 22 39 25.24 -21 43 09.7 18.0   704 – Lincoln Laboratory ETS, New Mexico MPS 6611
1999 09 11.28099 22 39 24.32 -21 43 13.5 18.5   704 – Lincoln Laboratory ETS, New Mexico MPS 6611
1999 09 11.29614 22 39 23.35 -21 43 16.2 18.4   704 – Lincoln Laboratory ETS, New Mexico MPS 6611
1999 09 11.31064 22 39 22.49 -21 43 19.9 18.2   704 – Lincoln Laboratory ETS, New Mexico MPS 6611
1999 09 11.32497 22 39 21.70 -21 43 22.1 18.5   704 – Lincoln Laboratory ETS, New Mexico MPS 6611
1999 09 30.16515 22 23 48.15 -22 03 45.0 17.9   704 – Lincoln Laboratory ETS, New Mexico MPS 6611
1999 09 30.18124 22 23 47.48 -22 03 43.2 18.3   704 – Lincoln Laboratory ETS, New Mexico MPS 6611
1999 09 30.19723 22 23 46.85 -22 03 41.8 19.0   704 – Lincoln Laboratory ETS, New Mexico MPS 6611
1999 09 30.21303 22 23 46.28 -22 03 40.7 18.4   704 – Lincoln Laboratory ETS, New Mexico MPS 6611
1999 09 30.22895 22 23 45.65 -22 03 39.6 18.5   704 – Lincoln Laboratory ETS, New Mexico MPS 6611
1999 11 10.06828 22 28 08.97 -17 47 38.9 18.9   704 – Lincoln Laboratory ETS, New Mexico MPS 7238
1999 11 10.08449 22 28 09.73 -17 47 29.6 18.8   704 – Lincoln Laboratory ETS, New Mexico MPS 7238
1999 11 10.13306 22 28 11.88 -17 47 00.8 19.2   704 – Lincoln Laboratory ETS, New Mexico MPS 7238
1999 11 27.08236 22 45 23.59 -14 35 45.3 18.1 R 699 – Lowell Observatory-LONEOS MPS 7726
1999 11 27.10782 22 45 25.42 -14 35 27.4   699 – Lowell Observatory-LONEOS MPS 7726
1999 11 27.13326 22 45 27.10 -14 35 08.1   699 – Lowell Observatory-LONEOS MPS 7726
2001 03 02.50671 12 32 09.47 +06 18 23.6 19.6   608 – Haleakala-AMOS MPS 26303
2001 03 02.51718 12 32 08.98 +06 18 26.7 19.8   608 – Haleakala-AMOS MPS 26303
2001 03 02.52708 12 32 08.44 +06 18 30.0 19.6   608 – Haleakala-AMOS MPS 26303
2001 03 19.30708 12 17 02.72 +07 48 46.5 18.8   704 – Lincoln Laboratory ETS, New Mexico MPS 27298
2001 03 19.32031 12 17 01.91 +07 48 51.2 19.5   704 – Lincoln Laboratory ETS, New Mexico MPS 27298
2001 03 19.33356 12 17 01.20 +07 48 54.6 19.4   704 – Lincoln Laboratory ETS, New Mexico MPS 27298
2001 03 19.34677 12 17 00.42 +07 48 58.6 19.0   704 – Lincoln Laboratory ETS, New Mexico MPS 27298
2001 03 19.36003 12 16 59.65 +07 49 02.1 18.9   704 – Lincoln Laboratory ETS, New Mexico MPS 27298
2001 03 26.29931 12 10 21.36 +08 20 56.9 18.8   704 – Lincoln Laboratory ETS, New Mexico MPS 27298
2001 03 26.31177 12 10 20.63 +08 20 59.8 19.2   704 – Lincoln Laboratory ETS, New Mexico MPS 27298
2001 03 26.32426 12 10 19.94 +08 21 02.2 19.8   704 – Lincoln Laboratory ETS, New Mexico MPS 27298
2001 03 26.33671 12 10 19.22 +08 21 06.8 19.3   704 – Lincoln Laboratory ETS, New Mexico MPS 27298
2001 03 26.34918 12 10 18.50 +08 21 09.3 19.4   704 – Lincoln Laboratory ETS, New Mexico MPS 27298
2002 06 18.16554 15 35 14.26 -20 34 15.0 20.8 V 291 – LPL/Spacewatch II MPS 58450
2002 06 18.18677 15 35 13.35 -20 34 13.4 21.0 V 291 – LPL/Spacewatch II MPS 58450
2002 06 18.20798 15 35 12.43 -20 34 11.7 20.8 V 291 – LPL/Spacewatch II MPS 58450
2003 08 02.59019 21 20 14.86 -27 06 25.4 17.7 V 428 – Reedy Creek MPS 90154
2003 08 02.61859 21 20 13.08 -27 06 35.7 17.8 V 428 – Reedy Creek MPS 90154
2004 12 15.44921 11 34 53.78 +11 11 41.4 19.1   704 – Lincoln Laboratory ETS, New Mexico MPS 122198
2004 12 15.46214 11 34 54.40 +11 11 40.1 19.6   704 – Lincoln Laboratory ETS, New Mexico MPS 122198
2004 12 15.47492 11 34 55.12 +11 11 39.5 19.7   704 – Lincoln Laboratory ETS, New Mexico MPS 122199
2004 12 15.48906 11 34 55.78 +11 11 36.0 19.4   704 – Lincoln Laboratory ETS, New Mexico MPS 122199
2004 12 15.50189 11 34 56.41 +11 11 34.3 19.3   704 – Lincoln Laboratory ETS, New Mexico MPS 122199
2004 12 22.42012 11 40 25.96 +10 59 23.6 19.5 R 703 – Catalina Sky Survey MPS 123064
2004 12 22.42883 11 40 26.27 +10 59 23.1 19.3 R 703 – Catalina Sky Survey MPS 123064
2004 12 22.43752 11 40 26.59 +10 59 21.3 19.0 R 703 – Catalina Sky Survey MPS 123064
2004 12 22.44623 11 40 27.07 +10 59 22.7 18.2 R 703 – Catalina Sky Survey MPS 123064
2005 02 03.37918 11 45 09.58 +12 47 27.8 18.5   704 – Lincoln Laboratory ETS, New Mexico MPS 126576
2005 02 03.39258 11 45 09.24 +12 47 32.4 18.7   704 – Lincoln Laboratory ETS, New Mexico MPS 126576
2005 02 03.40554 11 45 08.75 +12 47 36.9 19.0   704 – Lincoln Laboratory ETS, New Mexico MPS 126576
2005 02 03.41851 11 45 08.30 +12 47 41.3 19.1   704 – Lincoln Laboratory ETS, New Mexico MPS 126576
2005 03 16.28542 11 08 58.08 +16 33 20.3 17.7 R 703 – Catalina Sky Survey MPS 129577
2005 03 16.29396 11 08 57.53 +16 33 22.9 17.9 R 703 – Catalina Sky Survey MPS 129577
2005 03 16.30252 11 08 57.02 +16 33 24.3 18.1 R 703 – Catalina Sky Survey MPS 129577
2005 03 16.31105 11 08 56.56 +16 33 26.5 18.2 R 703 – Catalina Sky Survey MPS 129577
2005 04 02.22518 10 55 35.02 +16 59 32.3 18.3 R 699 – Lowell Observatory-LONEOS MPS 131140
2005 04 02.24793 10 55 34.18 +16 59 32.0   699 – Lowell Observatory-LONEOS MPS 131140
2005 04 02.27069 10 55 33.29 +16 59 32.3   699 – Lowell Observatory-LONEOS MPS 131140
2005 04 02.29347 10 55 32.42 +16 59 31.0   699 – Lowell Observatory-LONEOS MPS 131140
2006 03 28.75986 15 54 20.48 -18 42 34.0 20.3 V D35 – Lulin Observatory MPS 168484
2006 03 28.78913 15 54 19.94 -18 42 33.3 20.4 V D35 – Lulin Observatory MPS 168484
2006 03 28.82588 15 54 19.33 -18 42 33.2 20.1 V D35 – Lulin Observatory MPS 168484
2006 04 02.43922 15 52 49.94 -18 41 36.9 20.9 V G96 – Mt. Lemmon Survey MPS 168484
2006 04 02.44492 15 52 49.80 -18 41 37.2 20.6 V G96 – Mt. Lemmon Survey MPS 168484
2006 04 02.45077 15 52 49.62 -18 41 36.6 19.2 V G96 – Mt. Lemmon Survey MPS 168484
2006 04 02.45645 15 52 49.51 -18 41 36.8 20.6 V G96 – Mt. Lemmon Survey MPS 168484
2006 04 26.34391 15 38 09.75 -18 17 51.7 20.8 V 691 – Steward Observatory, Kitt Peak-Spacewatch MPS 170320
2006 04 26.36808 15 38 08.51 -18 17 49.4 20.3 V 691 – Steward Observatory, Kitt Peak-Spacewatch MPS 170320
2006 04 26.38542 15 38 07.66 -18 17 48.0 20.9 V 691 – Steward Observatory, Kitt Peak-Spacewatch MPS 170320
2006 04 30.31253 15 34 49.37 -18 11 06.4 20.2 V 691 – Steward Observatory, Kitt Peak-Spacewatch MPS 171100
2006 04 30.32986 15 34 48.44 -18 11 04.5 20.2 V 691 – Steward Observatory, Kitt Peak-Spacewatch MPS 171100
2006 04 30.34717 15 34 47.53 -18 11 02.6 20.2 V 691 – Steward Observatory, Kitt Peak-Spacewatch MPS 171100
2006 05 20.28492 15 16 34.10 -17 30 15.5 19.0 V G96 – Mt. Lemmon Survey MPS 172366
